Weather History for KCRE - November, 2011

Change the Weather History Date:

Monday, November 28, 2011

  Actual Average Record
Temperature  
Mean Temperature 63 °F 53 °F  
Max Temperature 71 °F 63 °F 77 °F (1994)
Min Temperature 55 °F 43 °F 27 °F (1950)
Degree Days  
Heating Degree Days 2 12  
Month to date heating degree days 202 246  
Since 1 July heating degree days 315 336  
Cooling Degree Days 0 0  
Month to date cooling degree days 12 12  
Year to date cooling degree days 2203 1895  
Growing Degree Days 13 (Base 50)    
Moisture  
Dew Point 63 °F    
Average Humidity 76    
Maximum Humidity 93    
Minimum Humidity 59    
Precipitation  
Precipitation 0.36 in 0.10 in 0.36 in (2011)
Month to date precipitation 2.33 2.83  
Year to date precipitation 31.88 48.34  
Sea Level Pressure  
Sea Level Pressure 29.97 in    
Wind  
Wind Speed 8 mph (SSE)    
Max Wind Speed 26 mph    
Max Gust Speed 38 mph    
Visibility 7 miles    
Events Rain    
T = Trace of Precipitation, MM = Missing Value Source: NWS Daily Summary

Daily Weather History Graph

Daily Weather History Graph

Search for Another Location

Airport or City:

Trip Planner

Search our weather history database for the weather conditions in past years. The results will help you decide how hot, cold, wet, or windy it might be!

Date:

Astronomy

Nov. 28, 2011 Rise Set
Actual Time 6:58 AM EST 5:06 PM EST
Civil Twilight 6:31 AM EST 5:33 PM EST
Nautical Twilight 6:00 AM EST 6:04 PM EST
Astronomical Twilight 5:30 AM EST 6:34 PM EST
Moon 10:08 AM EST (11/28) 8:49 PM EST (11/28)
Length of Visible Light 11h 02m
Length of Day
10h 07m
Waxing Crescent, 15% of the Moon is Illuminated
Nov 28
Waxing Crescent
Dec 2
First Quarter
Dec 10
Full
Dec 17
Last Quarter
Dec 24
New

Hourly Weather History & Observations

Time (EST) Temp. Dew Point Humidity Pressure Visibility Wind Dir Wind Speed Gust Speed Precip Events Conditions
12:53 AM 66.9 °F 55.9 °F 68% 30.06 in 10.0 mi SE 8.1 mph - N/A   Overcast
1:53 AM 68.0 °F 55.9 °F 65% 30.05 in 10.0 mi ESE 6.9 mph - N/A   Overcast
2:53 AM 66.9 °F 59.0 °F 76% 30.03 in 10.0 mi SSE 3.5 mph - 0.00 in Rain Light Rain
3:53 AM 64.9 °F 63.0 °F 93% 30.03 in 4.0 mi South 9.2 mph 18.4 mph 0.02 in Rain Light Rain
4:01 AM 64.4 °F 62.6 °F 94% 30.03 in 10.0 mi South 8.1 mph - 0.00 in   Overcast
4:06 AM 64.4 °F 62.6 °F 94% 30.03 in 7.0 mi South 10.4 mph - 0.00 in Rain Light Rain
4:19 AM 66.2 °F 60.8 °F 83% 30.02 in 9.0 mi South 13.8 mph 20.7 mph 0.01 in Rain Light Rain
4:53 AM 66.9 °F 61.0 °F 81% 30.01 in 10.0 mi South 5.8 mph - 0.01 in   Overcast
5:53 AM 66.9 °F 62.1 °F 84% 30.01 in 10.0 mi SE 3.5 mph - N/A   Mostly Cloudy
6:53 AM 66.9 °F 60.1 °F 79% 30.02 in 10.0 mi SSE 5.8 mph - N/A   Overcast
7:53 AM 66.0 °F 62.1 °F 87% 30.04 in 10.0 mi South 5.8 mph - 0.00 in   Overcast
8:26 AM 64.4 °F 62.6 °F 94% 30.05 in 2.0 mi South 9.2 mph - 0.01 in Rain Light Rain
8:28 AM 64.4 °F 62.6 °F 94% 30.05 in 1.8 mi South 8.1 mph - 0.01 in Rain Light Rain
8:47 AM 64.4 °F 62.6 °F 94% 30.04 in 5.0 mi SE 4.6 mph - 0.05 in Rain Light Rain
8:48 AM 64.9 °F 64.0 °F 97% 30.04 in 5.0 mi SE 4.6 mph - 0.05 in Rain Light Rain
9:51 AM 66.2 °F 64.4 °F 94% 30.03 in 10.0 mi Variable 6.9 mph - 0.00 in   Overcast
9:53 AM 66.0 °F 64.9 °F 96% 30.04 in 10.0 mi ESE 5.8 mph - 0.00 in   Overcast
10:24 AM 66.2 °F 62.6 °F 88% 30.02 in 10.0 mi SE 9.2 mph 16.1 mph 0.00 in   Overcast
10:53 AM 68.0 °F 63.0 °F 84% 30.03 in 10.0 mi SE 9.2 mph 18.4 mph 0.00 in   Overcast
11:26 AM 66.2 °F 64.4 °F 94% 30.01 in 10.0 mi SSE 10.4 mph - N/A   Overcast
11:48 AM 68.0 °F 64.4 °F 88% 30.00 in 10.0 mi SE 11.5 mph 19.6 mph N/A   Overcast
11:53 AM 66.9 °F 64.9 °F 93% 30.00 in 10.0 mi SE 12.7 mph 19.6 mph N/A   Overcast
12:09 PM 69.8 °F 64.4 °F 83% 29.99 in 10.0 mi SE 8.1 mph - N/A   Overcast
12:16 PM 69.8 °F 64.4 °F 83% 29.99 in 10.0 mi SSE 10.4 mph 17.3 mph N/A   Overcast
12:48 PM 66.2 °F 64.4 °F 94% 29.97 in 1.8 mi SE 10.4 mph 19.6 mph 0.01 in Rain Rain
12:53 PM 66.9 °F 64.9 °F 93% 29.97 in 1.8 mi SE 9.2 mph 19.6 mph 0.02 in Rain Light Rain
12:55 PM 66.2 °F 64.4 °F 94% 29.97 in 4.0 mi SE 8.1 mph 17.3 mph 0.00 in Rain Light Rain
1:42 PM 66.2 °F 64.4 °F 94% 29.95 in 2.0 mi SE 6.9 mph - 0.02 in Rain Light Rain
1:48 PM 66.2 °F 64.4 °F 94% 29.95 in 3.0 mi SE 8.1 mph - 0.02 in Rain Light Rain
1:53 PM 66.9 °F 64.9 °F 93% 29.95 in 4.0 mi SSE 8.1 mph - 0.02 in Rain Light Rain
2:02 PM 66.2 °F 64.4 °F 94% 29.95 in 4.0 mi SSE 8.1 mph - 0.00 in Rain Light Rain
2:12 PM 66.2 °F 66.2 °F 100% 29.94 in 3.0 mi South 6.9 mph - 0.00 in Rain Light Rain
2:19 PM 66.2 °F 66.2 °F 100% 29.94 in 2.5 mi SSE 10.4 mph 16.1 mph 0.01 in Rain Light Rain
2:27 PM 66.2 °F 66.2 °F 100% 29.93 in 2.5 mi SSE 8.1 mph 16.1 mph 0.01 in Rain Light Rain
2:31 PM 68.0 °F 66.2 °F 94% 29.93 in 6.0 mi SSE 5.8 mph - 0.01 in Rain Light Rain
2:53 PM 68.0 °F 66.0 °F 93% 29.93 in 10.0 mi SE 8.1 mph - 0.01 in   Overcast
3:53 PM 69.1 °F 64.9 °F 87% 29.92 in 10.0 mi SE 5.8 mph - N/A   Overcast
4:53 PM 69.1 °F 63.0 °F 81% 29.91 in 10.0 mi SE 8.1 mph - N/A   Partly Cloudy
5:53 PM 69.1 °F 64.0 °F 84% 29.90 in 10.0 mi SSE 9.2 mph - N/A   Overcast
6:53 PM 70.0 °F 64.0 °F 81% 29.88 in 10.0 mi SE 11.5 mph 19.6 mph N/A   Overcast
7:53 PM 70.0 °F 64.0 °F 81% 29.87 in 10.0 mi SE 11.5 mph 20.7 mph N/A   Overcast
8:53 PM 70.0 °F 64.0 °F 81% 29.86 in 10.0 mi SSE 15.0 mph 25.3 mph N/A   Mostly Cloudy
9:53 PM 71.1 °F 64.0 °F 78% 29.84 in 10.0 mi SSE 12.7 mph 25.3 mph N/A   Overcast
10:53 PM 70.0 °F 64.0 °F 81% 29.81 in 10.0 mi SSE 9.2 mph 23.0 mph 0.00 in   Overcast
11:50 PM 57.2 °F 53.6 °F 88% 29.85 in 2.5 mi West 16.1 mph 38.0 mph 0.10 in Rain Heavy Rain
11:53 PM 55.9 °F 53.1 °F 90% 29.85 in 1.5 mi West 13.8 mph 38.0 mph 0.16 in Rain Heavy Rain
11:58 PM 55.4 °F 53.6 °F 94% 29.85 in 1.2 mi WNW 12.7 mph 21.9 mph 0.06 in Rain Heavy Rain